Location: Katzenstein
(51.7484°N, 10.2155°E)
Time: 17:58:13
(UTC+00:00)

Cosmos 407 Rocket - Pass Details

Date: 17 February 2020
Orbit: 745 x 785 km, 74.0° (Epoch: 01 April)

Event Time Altitude Azimuth Distance (km) Brightness Sun altitude
Rises 04:46:35 0° 192° (SSW) 3,261 6.6 -16.7°
Reaches altitude 10° 04:48:59 10° 189° (S) 2,334 5.9 -16.4°
Maximum altitude 04:54:13 62° 110° (ESE) 873 4.0 -15.5°
Drops below altitude 10° 04:59:27 10° 30° (NNE) 2,329 6.4 -14.7°
Sets 05:01:50 0° 27° (NNE) 3,254 7.1 -14.4°
